Flag for Germany Weather past 2 weeks in Dietzenbach, Hesse, Germany

Now
56 °F

Passing clouds.


Feels Like: 56 °F
Forecast: 56 / 84 °F
Wind: 1 mph from Northeast

Location: Frankfurt / M-Flughafen

Current Time: Jun 4, 2015 at 2:09:39 AM

Latest Report: Jun 4, 2015 at 1:00 AM


Visibility: 37 mi

Pressure: 30.32 "Hg

Humidity: 73%

Dew point: 48 °F

Location of DietzenbachLocation

Historic Weather in Dietzenbach — Graph

°F

Dietzenbach temperature yesterday

Maximum temperature yesterday: 75 °F (at 6:00 PM)
Minimum temperature yesterday: 59 °F (at 6:00 AM)
Average temperature yesterday: 67 °F

Past Weeks' High & Low Weather Summary

 TemperatureHumidityPressure
High77 °F (Jun 2, 7:00 PM)100% (Jun 2, 7:00 AM)30.35 "Hg (Jun 2, 7:00 AM)
Low39 °F (May 28, 3:00 AM)29% (May 22, 2:00 PM)29.80 "Hg (May 29, 7:00 PM)
Average58 °F65%30.06 "Hg
* Reported May 20 1:00 AM — Jun 4 1:00 AM, Dietzenbach, Weather by CustomWeather, © 2015

Note: Actual official high and low records may vary slightly from our data, if they occured in-between our weather recording intervals... More about our weather records

Advertising

Dietzenbach weather history for previous 24 hours

 ConditionsComfort  
Time TempWeatherWind HumidityBarometerVisibility
1:00 AM
Thu, Jun 4
56 °FPassing clouds.1 mph73%30.32 "Hg37 mi
12:00 AM59 °FPassing clouds.3 mph64%30.30 "Hg37 mi
11:00 PM
Wed, Jun 3
64 °FPassing clouds.5 mph52%30.29 "Hg37 mi
10:00 PM65 °FPassing clouds.3 mph52%30.27 "Hg37 mi
9:00 PM68 °FPassing clouds.5 mph49%30.24 "Hg37 mi
8:00 PM71 °FScattered clouds.6 mph46%30.21 "Hg37 mi
7:00 PM74 °FScattered clouds.7 mph40%30.19 "Hg37 mi
6:00 PM75 °FScattered clouds.8 mph39%30.19 "Hg40 mi
4:00 PM72 °FScattered clouds.8 mph49%30.19 "Hg40 mi
3:00 PM72 °FScattered clouds.7 mph50%30.19 "Hg40 mi
2:00 PM72 °FPartly sunny.9 mph51%30.17 "Hg40 mi
1:00 PM73 °FPartly sunny.9 mph48%30.16 "Hg40 mi
12:00 PM70 °FScattered clouds.8 mph56%30.16 "Hg40 mi
10:00 AM67 °FPartly sunny.8 mph60%30.14 "Hg37 mi
9:00 AM67 °FScattered clouds.6 mph62%30.12 "Hg37 mi
8:00 AM66 °FPassing clouds.7 mph63%30.10 "Hg40 mi
7:00 AM61 °FPassing clouds.5 mph75%30.09 "Hg40 mi
6:00 AM59 °FScattered clouds.2 mph79%30.06 "Hg37 mi
4:00 AM63 °FPassing clouds.3 mph66%30.04 "Hg37 mi
3:00 AM62 °FPassing clouds.1 mph71%30.03 "Hg37 mi
2:00 AM60 °FPassing clouds.3 mph75%30.03 "Hg37 mi
Weather by CustomWeather, © 2015

See weather overviewHow to use our weather pages